Weather History for KBMG - December, 1999

Change the Weather History Date:

Thursday, December 23, 1999

  Actual Average Record
Temperature  
Mean Temperature 22 °F 30 °F  
Max Temperature 25 °F 39 °F 57 °F (1996)
Min Temperature 18 °F 22 °F -6 °F (2000)
Degree Days  
Heating Degree Days 44 35  
Month to date heating degree days 736  
Since 1 July heating degree days 1792  
Cooling Degree Days 0 0  
Month to date cooling degree days 0  
Year to date cooling degree days 927  
Moisture  
Dew Point 14 °F    
Average Humidity 72    
Maximum Humidity 86    
Minimum Humidity 48    
Precipitation  
Precipitation 0.00 in 0.14 in 0.93 in (2008)
Month to date precipitation 2.45  
Year to date precipitation 46.46  
Sea Level Pressure  
Sea Level Pressure 30.32 in    
Wind  
Wind Speed 8 mph (WSW)    
Max Wind Speed 15 mph    
Max Gust Speed 20 mph    
Visibility 9 miles    
Events Snow    
T = Trace of Precipitation, MM = Missing Value Source: NWS Daily Summary

Daily Weather History Graph

Daily Weather History Graph

Search for Another Location

Airport or City:

Trip Planner

Search our weather history database for the weather conditions in past years. The results will help you decide how hot, cold, wet, or windy it might be!

Date:

Astronomy

Dec. 23, 1999 Rise Set
Actual Time 8:03 AM EST 5:27 PM EST
Civil Twilight 7:32 AM EST 5:58 PM EST
Nautical Twilight 6:59 AM EST 6:31 PM EST
Astronomical Twilight 6:26 AM EST 7:04 PM EST
Moon 6:50 PM EST (12/23) 8:47 AM EST (12/23)
Length of Visible Light 10h 25m
Length of Day
9h 24m
Full, 99% of the Moon is Illuminated
Dec 23
Full
Dec 29
Last Quarter
Jan 6
New
Jan 14
First Quarter
Jan 20
Full

Hourly Weather History & Observations

Time (EST) Temp. Windchill Dew Point Humidity Pressure Visibility Wind Dir Wind Speed Gust Speed Precip Events Conditions
12:53 AM 25.0 °F 14.8 °F 19.0 °F 78% 30.35 in 6.0 mi West 10.4 mph - 0.00 in Snow Light Snow
1:10 AM 24.8 °F 14.6 °F 17.6 °F 74% 30.32 in 10.0 mi WNW 10.4 mph - 0.00 in   Mostly Cloudy
1:53 AM 24.1 °F 12.5 °F 18.0 °F 77% 30.35 in 10.0 mi West 12.7 mph 19.6 mph 0.00 in   Overcast
2:15 AM 21.2 °F 7.8 °F 15.8 °F 80% 30.33 in 10.0 mi West 15.0 mph - N/A   Scattered Clouds
2:53 AM 21.9 °F 13.4 °F 16.0 °F 78% 30.36 in 10.0 mi West 6.9 mph - N/A   Scattered Clouds
3:03 AM 21.2 °F 11.7 °F 15.8 °F 80% 30.33 in 10.0 mi WNW 8.1 mph - N/A   Mostly Cloudy
3:26 AM 21.2 °F 13.6 °F 14.0 °F 74% 30.33 in 10.0 mi Variable 5.8 mph - N/A   Overcast
3:53 AM 21.0 °F 11.4 °F 14.0 °F 74% 30.37 in 10.0 mi WNW 8.1 mph - N/A   Overcast
4:53 AM 21.0 °F 12.4 °F 14.0 °F 74% 30.37 in 10.0 mi WNW 6.9 mph - N/A   Overcast
5:53 AM 19.0 °F 7.5 °F 12.9 °F 77% 30.38 in 10.0 mi West 10.4 mph - N/A   Overcast
6:53 AM 19.0 °F 12.3 °F 12.0 °F 74% 30.38 in 10.0 mi Variable 4.6 mph - N/A   Overcast
7:53 AM 18.0 °F 8.7 °F 12.0 °F 78% 30.40 in 10.0 mi WNW 6.9 mph - N/A   Overcast
8:53 AM 18.0 °F 7.7 °F 12.0 °F 78% 30.42 in 10.0 mi NW 8.1 mph - N/A   Overcast
9:53 AM 18.0 °F 9.8 °F 10.9 °F 74% 30.42 in 10.0 mi WNW 5.8 mph - N/A   Overcast
10:53 AM 19.0 °F 7.5 °F 10.0 °F 68% 30.43 in 10.0 mi West 10.4 mph - N/A   Overcast
11:53 AM 21.0 °F 11.4 °F 10.9 °F 65% 30.42 in 10.0 mi WSW 8.1 mph - N/A   Overcast
12:53 PM 21.9 °F 11.7 °F 10.9 °F 63% 30.41 in 10.0 mi WSW 9.2 mph - N/A   Overcast
1:53 PM 24.1 °F 15.2 °F 10.0 °F 55% 30.37 in 10.0 mi WSW 8.1 mph - N/A   Overcast
2:53 PM 24.1 °F 18.2 °F 7.0 °F 48% 30.36 in 10.0 mi Variable 4.6 mph - N/A   Clear
3:53 PM 25.0 °F 17.1 °F 8.1 °F 49% 30.34 in 10.0 mi SW 6.9 mph - N/A   Clear
4:53 PM 24.1 °F 15.2 °F 8.1 °F 51% 30.33 in 10.0 mi WSW 8.1 mph - N/A   Clear
5:53 PM 21.9 °F 14.5 °F 10.0 °F 60% 30.31 in 10.0 mi SW 5.8 mph - N/A   Partly Cloudy
6:53 PM 21.9 °F 15.7 °F 12.0 °F 66% 30.30 in 10.0 mi SSW 4.6 mph - N/A   Mostly Cloudy
7:53 PM 23.0 °F 17.0 °F 12.0 °F 63% 30.32 in 10.0 mi WSW 4.6 mph - N/A   Overcast
8:53 PM 23.0 °F 15.8 °F 12.9 °F 65% 30.29 in 10.0 mi SSW 5.8 mph - N/A   Overcast
9:53 PM 23.0 °F 15.8 °F 15.1 °F 72% 30.25 in 10.0 mi South 5.8 mph - N/A   Overcast
10:38 PM 23.0 °F 15.8 °F 17.6 °F 80% 30.20 in 2.5 mi South 5.8 mph - 0.00 in Snow Light Snow
10:53 PM 23.0 °F 13.9 °F 18.0 °F 81% 30.22 in 3.0 mi South 8.1 mph - 0.00 in Snow Light Snow
11:27 PM 23.0 °F 15.8 °F 19.4 °F 86% 30.18 in 4.0 mi South 5.8 mph - 0.00 in Snow Light Snow
11:36 PM 23.0 °F 15.8 °F 19.4 °F 86% 30.18 in 3.0 mi South 5.8 mph - 0.00 in Snow Light Snow
11:44 PM 23.0 °F 17.0 °F 19.4 °F 86% 30.17 in 2.5 mi South 4.6 mph - 0.00 in Snow Light Snow
11:53 PM 23.0 °F 14.7 °F 19.0 °F 85% 30.20 in 3.0 mi South 6.9 mph - 0.00 in Snow Light Snow